Вернуться в каталог

S-Net C

S-NET C

АктивенЛюбительское радиоSSO
NORAD 43189·PAYLOAD·🇩🇪 Germany

Запущен Feb 1, 2018 с Vostochny Cosmodrome

Loading…

Ближайшие Пролёты (ближайшие 24 часа)

TLE

СвежийSource: AMSAT

Эпоха: Sep 14, 2026, 04:41 UTC

1 43189U 18014K   26257.19545971  .00003538  00000-0  18053-3 0  9991
2 43189  97.5287 161.7281 0011571  63.0640 297.1774 15.17331282470804

Отслеживайте S-Net C в реальном времени с AllMySat

Download on the App Store